Location: Albany
(35.0170°S, 117.8920°E)
Time: 03:32:45
(UTC+08:00)

Vanguard 1 - Pass Details

Date: 26 January 2021
Orbit: 649 x 3833 km, 34.2° (Epoch: 26 February)

Event Time Altitude Azimuth Distance (km) Brightness Sun altitude
Rises 02:19:56 0° 281° (W) 3,701 - -29.2°
Reaches altitude 10° 02:22:55 10° 282° (WNW) 2,467 - -28.9°
Maximum altitude 02:28:14 77° 8° (N) 705 - -28.3°
Exits shadow 02:29:50 40° 85° (E) 982 10.2 -28.1°
Drops below altitude 10° 02:32:39 10° 93° (E) 2,066 12.2 -27.8°
Sets 02:34:57 0° 94° (E) 3,041 13.1 -27.5°
